| time (UTC) | temp F | wind direction | speed MPH | gust MPH | rain 1hr in | rain 24hr in | rain mn in | humidity % | barometer mb |
| 20260508022022 | 37 | 247 | 0.0 | 0.0 | 0.00 | 0.00 | 0.00 | 79 | 994.8 |
| 20260508021532 | 38 | 247 | 0.0 | 0.0 | 0.00 | 0.00 | 0.00 | 78 | 994.8 |
| 20260508021042 | 38 | 247 | 0.0 | 0.0 | 0.00 | 0.00 | 0.00 | 78 | 994.7 |
| 20260508020553 | 38 | 247 | 0.0 | 0.0 | 0.00 | 0.00 | 0.00 | 76 | 994.7 |
| 20260508015609 | 39 | 247 | 0.0 | 0.0 | 0.00 | 0.01 | 0.00 | 73 | 994.7 |
| 20260508015057 | 39 | 247 | 0.0 | 0.0 | 0.00 | 0.01 | 0.00 | 73 | 994.6 |
| 20260508014606 | 39 | 247 | 0.0 | 0.0 | 0.00 | 0.01 | 0.00 | 73 | 994.5 |
| 20260508014044 | 39 | 247 | 0.0 | 0.0 | 0.00 | 0.01 | 0.00 | 73 | 994.5 |
| 20260508013605 | 39 | 247 | 0.0 | 0.0 | 0.00 | 0.01 | 0.00 | 73 | 994.5 |
| 20260508013041 | 40 | 247 | 0.0 | 0.0 | 0.00 | 0.01 | 0.00 | 72 | 994.5 |
| 20260508012548 | 40 | 247 | 0.0 | 0.0 | 0.00 | 0.01 | 0.00 | 71 | 994.4 |
| 20260508012052 | 40 | 247 | 0.0 | 0.0 | 0.00 | 0.01 | 0.00 | 70 | 994.4 |
| 20260508011606 | 41 | 247 | 0.0 | 0.0 | 0.00 | 0.01 | 0.00 | 70 | 994.3 |
| 20260508011046 | 42 | 247 | 0.0 | 0.0 | 0.00 | 0.01 | 0.00 | 69 | 994.3 |
| 20260508010554 | 42 | 247 | 0.0 | 0.0 | 0.00 | 0.01 | 0.00 | 67 | 994.2 |
| 20260508010021 | 43 | 247 | 0.0 | 0.0 | 0.00 | 0.05 | 0.00 | 65 | 994.1 |
| 20260508005531 | 44 | 247 | 0.0 | 0.0 | 0.00 | 0.05 | 0.00 | 63 | 994.0 |
| 20260508005031 | 44 | 247 | 0.0 | 0.0 | 0.00 | 0.05 | 0.00 | 61 | 994.0 |
| 20260508004521 | 45 | 247 | 0.0 | 0.0 | 0.00 | 0.05 | 0.00 | 61 | 993.9 |
| 20260508004021 | 46 | 247 | 0.0 | 0.0 | 0.00 | 0.05 | 0.00 | 57 | 993.8 |
| 20260508003533 | 46 | 247 | 0.0 | 0.0 | 0.00 | 0.05 | 0.00 | 55 | 993.7 |
| 20260508003021 | 47 | 247 | 0.0 | 1.0 | 0.00 | 0.05 | 0.00 | 53 | 993.7 |
| 20260508002522 | 47 | 247 | 0.0 | 1.0 | 0.00 | 0.05 | 0.00 | 53 | 993.6 |
| 20260508002029 | 48 | 221 | 0.0 | 1.0 | 0.00 | 0.05 | 0.00 | 53 | 993.6 |
| 20260508001539 | 48 | 203 | 0.0 | 0.0 | 0.00 | 0.05 | 0.00 | 51 | 993.5 |
| 20260508001048 | 49 | 203 | 0.0 | 0.0 | 0.00 | 0.05 | 0.00 | 48 | 993.5 |
| 20260508000531 | 50 | 158 | 0.0 | 0.0 | 0.00 | 0.05 | 0.00 | 46 | 993.5 |
| 20260508000035 | 50 | 203 | 0.0 | 0.0 | 0.00 | 0.08 | 0.00 | 45 | 993.4 |
| 20260507235535 | 51 | 273 | 0.0 | 0.0 | 0.00 | 0.08 | 0.00 | 43 | 993.3 |
| 20260507235023 | 51 | 103 | 0.0 | 0.0 | 0.00 | 0.08 | 0.00 | 44 | 993.3 |
| 20260507234532 | 52 | 224 | 0.0 | 0.0 | 0.00 | 0.08 | 0.00 | 42 | 993.2 |
| 20260507234034 | 52 | 286 | 0.0 | 0.0 | 0.00 | 0.08 | 0.00 | 44 | 993.2 |
| 20260507233525 | 52 | 333 | 0.0 | 0.0 | 0.00 | 0.08 | 0.00 | 42 | 993.2 |
| 20260507233024 | 53 | 35 | 0.0 | 0.0 | 0.00 | 0.08 | 0.00 | 41 | 993.1 |
| 20260507232533 | 53 | 271 | 0.0 | 1.0 | 0.00 | 0.08 | 0.00 | 41 | 993.1 |
| 20260507232035 | 54 | 288 | 0.0 | 1.0 | 0.00 | 0.08 | 0.00 | 39 | 993.0 |
| 20260507231545 | 54 | 288 | 0.0 | 3.0 | 0.00 | 0.08 | 0.00 | 37 | 993.0 |
| 20260507231026 | 55 | 243 | 0.0 | 4.0 | 0.00 | 0.08 | 0.00 | 36 | 993.0 |
| 20260507230538 | 56 | 276 | 1.0 | 4.0 | 0.00 | 0.08 | 0.00 | 36 | 993.0 |
| 20260507230046 | 57 | 262 | 0.0 | 5.0 | 0.00 | 0.12 | 0.00 | 36 | 993.0 |
| 20260507225639 | 57 | 282 | 0.0 | 5.0 | 0.00 | 0.12 | 0.00 | 35 | 992.9 |
| 20260507225053 | 57 | 117 | 1.0 | 9.0 | 0.00 | 0.12 | 0.00 | 34 | 993.0 |
| 20260507224540 | 58 | 22 | 2.0 | 9.0 | 0.00 | 0.12 | 0.00 | 33 | 992.9 |
| 20260507224048 | 58 | 290 | 1.0 | 6.0 | 0.00 | 0.12 | 0.00 | 34 | 993.0 |
| 20260507223600 | 58 | 252 | 1.0 | 6.0 | 0.00 | 0.12 | 0.00 | 33 | 992.9 |
| 20260507223046 | 59 | 250 | 2.0 | 9.0 | 0.00 | 0.12 | 0.00 | 32 | 992.9 |
| 20260507222555 | 59 | 266 | 3.0 | 10.0 | 0.00 | 0.12 | 0.00 | 31 | 992.9 |
| 20260507222043 | 59 | 257 | 3.0 | 10.0 | 0.00 | 0.12 | 0.00 | 33 | 992.9 |
| 20260507221550 | 59 | 265 | 1.0 | 8.0 | 0.00 | 0.12 | 0.00 | 33 | 992.9 |
| 20260507221054 | 59 | 52 | 2.0 | 8.0 | 0.00 | 0.12 | 0.00 | 32 | 992.8 |
| 20260507220543 | 59 | 228 | 3.0 | 8.0 | 0.00 | 0.12 | 0.00 | 32 | 992.8 |
| 20260507220049 | 60 | 274 | 3.0 | 8.0 | 0.00 | 0.16 | 0.00 | 32 | 992.8 |
| 20260507215559 | 60 | 103 | 2.0 | 9.0 | 0.00 | 0.16 | 0.00 | 33 | 992.8 |
| 20260507215047 | 60 | 6 | 2.0 | 10.0 | 0.00 | 0.16 | 0.00 | 33 | 992.8 |
| 20260507214554 | 60 | 160 | 3.0 | 10.0 | 0.00 | 0.16 | 0.00 | 33 | 992.8 |
| 20260507214041 | 60 | 189 | 3.0 | 10.0 | 0.00 | 0.16 | 0.00 | 34 | 992.8 |
| 20260507213550 | 59 | 323 | 2.0 | 5.0 | 0.00 | 0.16 | 0.00 | 35 | 992.7 |
| 20260507213054 | 59 | 240 | 0.0 | 3.0 | 0.00 | 0.16 | 0.00 | 36 | 992.7 |
| 20260507212542 | 59 | 281 | 1.0 | 6.0 | 0.00 | 0.16 | 0.00 | 35 | 992.7 |
| 20260507212049 | 60 | 214 | 3.0 | 6.0 | 0.00 | 0.16 | 0.00 | 33 | 992.8 |
| 20260507211558 | 60 | 219 | 1.0 | 7.0 | 0.00 | 0.16 | 0.00 | 36 | 992.7 |
| 20260507211047 | 60 | 99 | 2.0 | 10.0 | 0.00 | 0.16 | 0.00 | 36 | 992.8 |
| 20260507210555 | 60 | 228 | 3.0 | 12.0 | 0.00 | 0.16 | 0.00 | 34 | 992.7 |
| 20260507210105 | 60 | 254 | 2.0 | 12.0 | 0.00 | 0.19 | 0.00 | 38 | 992.6 |
| 20260507205525 | 60 | 58 | 1.0 | 14.0 | 0.00 | 0.19 | 0.00 | 36 | 992.6 |
| 20260507205034 | 60 | 309 | 3.0 | 14.0 | 0.00 | 0.19 | 0.00 | 37 | 992.6 |
| 20260507204540 | 59 | 211 | 3.0 | 9.0 | 0.00 | 0.19 | 0.00 | 35 | 992.6 |
| 20260507204020 | 59 | 283 | 2.0 | 12.0 | 0.00 | 0.19 | 0.00 | 35 | 992.6 |
| 20260507203533 | 59 | 340 | 4.0 | 12.0 | 0.00 | 0.19 | 0.00 | 36 | 992.6 |
| 20260507203033 | 60 | 46 | 3.0 | 12.0 | 0.00 | 0.19 | 0.00 | 35 | 992.7 |
| 20260507202522 | 60 | 139 | 4.0 | 12.0 | 0.00 | 0.19 | 0.00 | 36 | 992.6 |
| 20260507202032 | 60 | 304 | 3.0 | 10.0 | 0.00 | 0.19 | 0.00 | 36 | 992.7 |
| 20260507201534 | 60 | 285 | 3.0 | 10.0 | 0.00 | 0.19 | 0.00 | 36 | 992.7 |
| 20260507201023 | 60 | 269 | 3.0 | 8.0 | 0.00 | 0.19 | 0.00 | 39 | 992.8 |
| 20260507200534 | 60 | 236 | 4.0 | 8.0 | 0.00 | 0.19 | 0.00 | 36 | 992.9 |
| 20260507200034 | 59 | 359 | 3.0 | 8.0 | 0.00 | 0.27 | 0.00 | 40 | 992.8 |
| 20260507195522 | 59 | 41 | 4.0 | 8.0 | 0.00 | 0.27 | 0.00 | 42 | 993.0 |
| 20260507195023 | 59 | 325 | 1.0 | 6.0 | 0.00 | 0.27 | 0.00 | 39 | 993.0 |
| 20260507194533 | 59 | 98 | 1.0 | 7.0 | 0.00 | 0.27 | 0.00 | 38 | 993.0 |
| 20260507194023 | 59 | 267 | 2.0 | 11.0 | 0.00 | 0.27 | 0.00 | 42 | 993.2 |
| 20260507193526 | 58 | 213 | 4.0 | 11.0 | 0.00 | 0.27 | 0.00 | 38 | 993.2 |
| 20260507193034 | 57 | 124 | 3.0 | 7.0 | 0.00 | 0.27 | 0.00 | 40 | 993.2 |
| 20260507192544 | 57 | 297 | 2.0 | 5.0 | 0.00 | 0.27 | 0.00 | 41 | 993.2 |
| 20260507192025 | 56 | 359 | 2.0 | 7.0 | 0.00 | 0.27 | 0.00 | 41 | 993.2 |
| 20260507191535 | 56 | 162 | 2.0 | 7.0 | 0.00 | 0.27 | 0.00 | 43 | 993.3 |
| 20260507191040 | 56 | 295 | 0.0 | 5.0 | 0.00 | 0.27 | 0.00 | 44 | 993.4 |
| 20260507190523 | 56 | 200 | 1.0 | 5.0 | 0.00 | 0.27 | 0.00 | 45 | 993.5 |
| 20260507190031 | 56 | 248 | 3.0 | 6.0 | 0.00 | 0.57 | 0.00 | 41 | 993.5 |
| 20260507185542 | 56 | 144 | 2.0 | 6.0 | 0.00 | 0.57 | 0.00 | 44 | 993.5 |
| 20260507185020 | 56 | 98 | 1.0 | 4.0 | 0.00 | 0.57 | 0.00 | 44 | 993.5 |
| 20260507184530 | 56 | 276 | 1.0 | 4.0 | 0.00 | 0.57 | 0.00 | 46 | 993.5 |
| 20260507184033 | 56 | 56 | 1.0 | 5.0 | 0.00 | 0.57 | 0.00 | 46 | 993.6 |
| 20260507183525 | 56 | 221 | 2.0 | 5.0 | 0.00 | 0.57 | 0.00 | 44 | 993.7 |
| 20260507183033 | 55 | 243 | 2.0 | 5.0 | 0.00 | 0.57 | 0.00 | 46 | 993.8 |
| 20260507182535 | 55 | 227 | 1.0 | 4.0 | 0.00 | 0.57 | 0.00 | 46 | 993.8 |
| 20260507182024 | 55 | 66 | 1.0 | 5.0 | 0.00 | 0.57 | 0.00 | 46 | 993.8 |
| 20260507181535 | 55 | 195 | 3.0 | 5.0 | 0.00 | 0.57 | 0.00 | 45 | 993.9 |
| 20260507181037 | 55 | 86 | 1.0 | 5.0 | 0.00 | 0.57 | 0.00 | 45 | 993.9 |
| 20260507180526 | 55 | 77 | 1.0 | 5.0 | 0.00 | 0.57 | 0.00 | 45 | 993.9 |
| 20260507180024 | 56 | 81 | 1.0 | 5.0 | 0.00 | 0.87 | 0.00 | 46 | 993.9 |
| 20260507175535 | 56 | 281 | 1.0 | 3.0 | 0.00 | 0.87 | 0.00 | 44 | 993.9 |
| 20260507175023 | 56 | 78 | 0.0 | 6.0 | 0.00 | 0.87 | 0.00 | 43 | 993.9 |
| 20260507174525 | 56 | 301 | 3.0 | 6.0 | 0.00 | 0.87 | 0.00 | 42 | 993.9 |
| 20260507174035 | 56 | 284 | 1.0 | 5.0 | 0.00 | 0.87 | 0.00 | 43 | 993.9 |
| 20260507173527 | 57 | 80 | 2.0 | 5.0 | 0.00 | 0.87 | 0.00 | 42 | 993.9 |
| 20260507173052 | 57 | 166 | 1.0 | 5.0 | 0.00 | 0.87 | 0.00 | 41 | 994.0 |
| 20260507172529 | 57 | 263 | 1.0 | 6.0 | 0.00 | 0.87 | 0.00 | 43 | 993.9 |
| 20260507172040 | 57 | 119 | 2.0 | 11.0 | 0.00 | 0.87 | 0.00 | 46 | 994.1 |
| 20260507171520 | 58 | 63 | 4.0 | 11.0 | 0.00 | 0.87 | 0.00 | 40 | 994.0 |
| 20260507171030 | 58 | 320 | 2.0 | 6.0 | 0.00 | 0.87 | 0.00 | 41 | 994.0 |
| 20260507170542 | 57 | 46 | 1.0 | 4.0 | 0.00 | 0.87 | 0.00 | 46 | 994.0 |
| 20260507170020 | 57 | 134 | 0.0 | 3.0 | 0.00 | 0.98 | 0.00 | 45 | 994.2 |
| 20260507165531 | 56 | 253 | 1.0 | 4.0 | 0.00 | 0.98 | 0.00 | 44 | 994.3 |
| 20260507165041 | 57 | 22 | 2.0 | 8.0 | 0.00 | 0.98 | 0.00 | 43 | 994.3 |
| 20260507164521 | 57 | 6 | 2.0 | 9.0 | 0.00 | 0.98 | 0.00 | 42 | 994.5 |
| 20260507164030 | 58 | 9 | 3.0 | 7.0 | 0.00 | 0.98 | 0.00 | 40 | 994.5 |
| 20260507163542 | 58 | 259 | 3.0 | 9.0 | 0.00 | 0.98 | 0.00 | 43 | 994.5 |
| 20260507163021 | 58 | 328 | 3.0 | 11.0 | 0.00 | 0.98 | 0.00 | 41 | 994.6 |
| 20260507162531 | 58 | 137 | 4.0 | 11.0 | 0.00 | 0.98 | 0.00 | 41 | 994.7 |
| 20260507162032 | 58 | 219 | 3.0 | 13.0 | 0.00 | 0.98 | 0.00 | 44 | 994.7 |
| 20260507161521 | 58 | 226 | 4.0 | 13.0 | 0.00 | 0.98 | 0.00 | 40 | 994.7 |
| 20260507161033 | 58 | 328 | 0.0 | 3.0 | 0.00 | 0.98 | 0.00 | 46 | 994.8 |
| 20260507160535 | 58 | 333 | 0.0 | 0.0 | 0.00 | 0.98 | 0.00 | 43 | 995.0 |
| 20260507160024 | 57 | 112 | 0.0 | 0.0 | 0.00 | 1.18 | 0.00 | 46 | 994.9 |
| 20260507155521 | 56 | 123 | 0.0 | 0.0 | 0.00 | 1.18 | 0.00 | 45 | 994.9 |
| 20260507155027 | 56 | 109 | 0.0 | 0.0 | 0.00 | 1.18 | 0.00 | 45 | 995.0 |
| 20260507154539 | 56 | 259 | 0.0 | 0.0 | 0.00 | 1.18 | 0.00 | 41 | 995.1 |
| 20260507154025 | 56 | 226 | 0.0 | 0.0 | 0.00 | 1.18 | 0.00 | 41 | 995.1 |
| 20260507153535 | 55 | 8 | 0.0 | 0.0 | 0.00 | 1.18 | 0.00 | 43 | 995.3 |
| 20260507153021 | 55 | 290 | 0.0 | 0.0 | 0.00 | 1.18 | 0.00 | 41 | 995.3 |
| 20260507152529 | 56 | 152 | 0.0 | 0.0 | 0.00 | 1.18 | 0.00 | 44 | 995.2 |
| 20260507152037 | 55 | 339 | 0.0 | 0.0 | 0.00 | 1.18 | 0.00 | 46 | 995.3 |
| 20260507151524 | 55 | 299 | 0.0 | 0.0 | 0.00 | 1.18 | 0.00 | 46 | 995.3 |
| 20260507151027 | 55 | 41 | 0.0 | 0.0 | 0.00 | 1.18 | 0.00 | 42 | 995.4 |
| 20260507150537 | 55 | 228 | 0.0 | 0.0 | 0.00 | 1.18 | 0.00 | 46 | 995.4 |
| 20260507150036 | 55 | 221 | 0.0 | 0.0 | 0.00 | 1.32 | 0.00 | 45 | 995.5 |
| 20260507145524 | 55 | 342 | 0.0 | 0.0 | 0.00 | 1.32 | 0.00 | 49 | 995.3 |
| 20260507145032 | 54 | 341 | 0.0 | 0.0 | 0.00 | 1.32 | 0.00 | 48 | 995.3 |
| 20260507144519 | 54 | 263 | 0.0 | 0.0 | 0.00 | 1.32 | 0.00 | 45 | 995.4 |
| 20260507144028 | 54 | 257 | 0.0 | 0.0 | 0.00 | 1.32 | 0.00 | 48 | 995.3 |
| 20260507143535 | 54 | 255 | 0.0 | 0.0 | 0.00 | 1.32 | 0.00 | 50 | 995.3 |
| 20260507143042 | 54 | 241 | 0.0 | 0.0 | 0.00 | 1.32 | 0.00 | 52 | 995.4 |
| 20260507142523 | 53 | 282 | 0.0 | 0.0 | 0.00 | 1.32 | 0.00 | 52 | 995.4 |
| 20260507142032 | 52 | 319 | 0.0 | 0.0 | 0.00 | 1.32 | 0.00 | 49 | 995.3 |
| 20260507141540 | 52 | 237 | 0.0 | 0.0 | 0.00 | 1.32 | 0.00 | 52 | 995.4 |
| 20260507141020 | 52 | 252 | 0.0 | 0.0 | 0.00 | 1.32 | 0.00 | 57 | 995.5 |
| 20260507140529 | 51 | 280 | 0.0 | 0.0 | 0.00 | 1.32 | 0.00 | 54 | 995.5 |
| 20260507140039 | 51 | 225 | 0.0 | 0.0 | 0.00 | 1.42 | 0.00 | 59 | 995.6 |
| 20260507135520 | 51 | 269 | 0.0 | 0.0 | 0.00 | 1.42 | 0.00 | 57 | 995.5 |
| 20260507135029 | 51 | 318 | 0.0 | 0.0 | 0.00 | 1.42 | 0.00 | 58 | 995.6 |
| 20260507134530 | 50 | 261 | 0.0 | 0.0 | 0.00 | 1.42 | 0.00 | 62 | 995.6 |
| 20260507134020 | 50 | 105 | 0.0 | 0.0 | 0.00 | 1.42 | 0.00 | 62 | 995.6 |
| 20260507133531 | 50 | 316 | 0.0 | 0.0 | 0.00 | 1.42 | 0.00 | 66 | 995.5 |
| 20260507133031 | 49 | 47 | 0.0 | 0.0 | 0.00 | 1.42 | 0.00 | 66 | 995.6 |
| 20260507132520 | 49 | 358 | 0.0 | 0.0 | 0.00 | 1.42 | 0.00 | 66 | 995.6 |
| 20260507132021 | 48 | 240 | 0.0 | 0.0 | 0.00 | 1.42 | 0.00 | 71 | 995.7 |
| 20260507131531 | 47 | 107 | 0.0 | 0.0 | 0.00 | 1.42 | 0.00 | 72 | 995.8 |
| 20260507131039 | 47 | 317 | 0.0 | 0.0 | 0.00 | 1.42 | 0.00 | 72 | 995.8 |
| 20260507130521 | 46 | 307 | 0.0 | 0.0 | 0.00 | 1.42 | 0.00 | 78 | 995.8 |
| 20260507130030 | 46 | 74 | 0.0 | 0.0 | 0.00 | 1.51 | 0.00 | 77 | 995.9 |
| 20260507125520 | 45 | 10 | 0.0 | 0.0 | 0.00 | 1.51 | 0.00 | 78 | 995.8 |
| 20260507125020 | 45 | 244 | 0.0 | 0.0 | 0.00 | 1.51 | 0.00 | 80 | 995.7 |
| 20260507124529 | 44 | 301 | 0.0 | 0.0 | 0.00 | 1.51 | 0.00 | 81 | 995.7 |
| 20260507124036 | 44 | 214 | 0.0 | 0.0 | 0.00 | 1.51 | 0.00 | 82 | 995.7 |
| 20260507123548 | 44 | 113 | 0.0 | 0.0 | 0.00 | 1.51 | 0.00 | 83 | 995.7 |
| 20260507123024 | 44 | 243 | 0.0 | 0.0 | 0.00 | 1.51 | 0.00 | 84 | 995.7 |
| 20260507122534 | 43 | 3 | 0.0 | 0.0 | 0.00 | 1.51 | 0.00 | 85 | 995.7 |
| 20260507122035 | 43 | 323 | 0.0 | 0.0 | 0.00 | 1.51 | 0.00 | 90 | 995.6 |
| 20260507121607 | 43 | 30 | 0.0 | 0.0 | 0.00 | 1.51 | 0.00 | 90 | 995.6 |
| 20260507121045 | 42 | 278 | 0.0 | 0.0 | 0.00 | 1.51 | 0.00 | 89 | 995.6 |
| 20260507120557 | 42 | 308 | 0.0 | 0.0 | 0.00 | 1.51 | 0.00 | 90 | 995.6 |
| 20260507120043 | 42 | 233 | 0.0 | 0.0 | 0.00 | 1.54 | 0.00 | 92 | 995.5 |
| 20260507115551 | 42 | 298 | 0.0 | 0.0 | 0.00 | 1.54 | 0.00 | 93 | 995.5 |
| 20260507115056 | 41 | 42 | 0.0 | 0.0 | 0.00 | 1.54 | 0.00 | 93 | 995.4 |
| 20260507114545 | 41 | 274 | 0.0 | 0.0 | 0.00 | 1.54 | 0.00 | 96 | 995.4 |
| 20260507114052 | 41 | 117 | 0.0 | 0.0 | 0.00 | 1.54 | 0.00 | 96 | 995.4 |
| 20260507113543 | 41 | 340 | 0.0 | 0.0 | 0.00 | 1.54 | 0.00 | 97 | 995.2 |
| 20260507113051 | 40 | 341 | 0.0 | 0.0 | 0.00 | 1.54 | 0.00 | 97 | 995.1 |
| 20260507112520 | 40 | 230 | 0.0 | 0.0 | 0.00 | 1.54 | 0.00 | 98 | 995.1 |
| 20260507112020 | 40 | 293 | 0.0 | 0.0 | 0.00 | 1.54 | 0.00 | 98 | 995.1 |
| 20260507111531 | 40 | 293 | 0.0 | 0.0 | 0.00 | 1.54 | 0.00 | 98 | 995.0 |
| 20260507111040 | 40 | 65 | 0.0 | 0.0 | 0.00 | 1.54 | 0.00 | 98 | 995.0 |
| 20260507110522 | 40 | 65 | 0.0 | 0.0 | 0.00 | 1.54 | 0.00 | 98 | 995.0 |
| 20260507110031 | 40 | 65 | 0.0 | 0.0 | 0.00 | 1.55 | 0.00 | 98 | 994.9 |
| 20260507105542 | 40 | 65 | 0.0 | 0.0 | 0.00 | 1.55 | 0.00 | 98 | 994.8 |
| 20260507105022 | 40 | 65 | 0.0 | 0.0 | 0.00 | 1.55 | 0.00 | 98 | 994.8 |
| 20260507104533 | 40 | 65 | 0.0 | 0.0 | 0.00 | 1.55 | 0.00 | 98 | 994.7 |
| 20260507104040 | 40 | 44 | 0.0 | 0.0 | 0.00 | 1.55 | 0.00 | 98 | 994.5 |
| 20260507103522 | 40 | 212 | 0.0 | 0.0 | 0.00 | 1.55 | 0.00 | 98 | 994.4 |
| 20260507103032 | 40 | 234 | 0.0 | 0.0 | 0.00 | 1.55 | 0.00 | 98 | 994.3 |
| 20260507102542 | 41 | 234 | 0.0 | 0.0 | 0.00 | 1.55 | 0.00 | 98 | 994.2 |
| 20260507102021 | 41 | 126 | 0.0 | 0.0 | 0.00 | 1.55 | 0.00 | 98 | 994.3 |
| 20260507101531 | 41 | 76 | 0.0 | 0.0 | 0.00 | 1.55 | 0.00 | 98 | 994.3 |
| 20260507101033 | 41 | 176 | 0.0 | 0.0 | 0.00 | 1.55 | 0.00 | 98 | 994.2 |
| 20260507100525 | 42 | 176 | 0.0 | 0.0 | 0.00 | 1.55 | 0.00 | 98 | 994.3 |
| 20260507100034 | 42 | 212 | 0.0 | 0.0 | 0.00 | 1.55 | 0.00 | 98 | 994.3 |
| 20260507095535 | 42 | 212 | 0.0 | 0.0 | 0.00 | 1.55 | 0.00 | 98 | 994.3 |
| 20260507095025 | 42 | 314 | 0.0 | 0.0 | 0.00 | 1.55 | 0.00 | 98 | 994.4 |
| 20260507094526 | 42 | 314 | 0.0 | 0.0 | 0.00 | 1.55 | 0.00 | 98 | 994.4 |
| 20260507094036 | 42 | 314 | 0.0 | 0.0 | 0.00 | 1.55 | 0.00 | 98 | 994.4 |
| 20260507093528 | 43 | 311 | 0.0 | 0.0 | 0.00 | 1.55 | 0.00 | 98 | 994.2 |
| 20260507093027 | 43 | 311 | 0.0 | 0.0 | 0.00 | 1.55 | 0.00 | 98 | 994.2 |
| 20260507092537 | 43 | 311 | 0.0 | 0.0 | 0.00 | 1.55 | 0.00 | 98 | 994.1 |
| 20260507092027 | 44 | 311 | 0.0 | 0.0 | 0.00 | 1.55 | 0.00 | 98 | 994.0 |
| 20260507091535 | 44 | 311 | 0.0 | 0.0 | 0.00 | 1.55 | 0.00 | 98 | 994.0 |
| 20260507091033 | 44 | 311 | 0.0 | 0.0 | 0.00 | 1.55 | 0.00 | 98 | 993.9 |
| 20260507090525 | 44 | 311 | 0.0 | 0.0 | 0.00 | 1.55 | 0.00 | 98 | 994.0 |
| 20260507090034 | 44 | 311 | 0.0 | 0.0 | 0.00 | 1.55 | 0.00 | 98 | 994.1 |
| 20260507085534 | 44 | 311 | 0.0 | 0.0 | 0.00 | 1.55 | 0.00 | 98 | 994.2 |
| 20260507085022 | 44 | 311 | 0.0 | 0.0 | 0.00 | 1.55 | 0.00 | 98 | 994.3 |
| 20260507084523 | 44 | 311 | 0.0 | 0.0 | 0.00 | 1.55 | 0.00 | 98 | 994.4 |
| 20260507084034 | 44 | 311 | 0.0 | 0.0 | 0.00 | 1.55 | 0.00 | 98 | 994.4 |
| 20260507083525 | 44 | 311 | 0.0 | 0.0 | 0.00 | 1.55 | 0.00 | 98 | 994.3 |
| 20260507083021 | 44 | 311 | 0.0 | 0.0 | 0.00 | 1.55 | 0.00 | 98 | 994.2 |
| 20260507082532 | 45 | 311 | 0.0 | 0.0 | 0.00 | 1.55 | 0.00 | 98 | 994.1 |
| 20260507082021 | 45 | 311 | 0.0 | 0.0 | 0.00 | 1.55 | 0.00 | 98 | 994.3 |
| 20260507081521 | 45 | 311 | 0.0 | 0.0 | 0.00 | 1.55 | 0.00 | 98 | 994.2 |
| 20260507081030 | 45 | 311 | 0.0 | 0.0 | 0.00 | 1.55 | 0.00 | 98 | 994.5 |
| 20260507080542 | 45 | 311 | 0.0 | 0.0 | 0.00 | 1.55 | 0.00 | 98 | 994.5 |
| 20260507080021 | 45 | 311 | 0.0 | 0.0 | 0.00 | 1.55 | 0.00 | 98 | 994.3 |
| 20260507075527 | 45 | 311 | 0.0 | 0.0 | 0.00 | 1.55 | 0.00 | 98 | 994.3 |
| 20260507075037 | 45 | 311 | 0.0 | 0.0 | 0.00 | 1.55 | 0.00 | 98 | 994.3 |
| 20260507074538 | 45 | 311 | 0.0 | 0.0 | 0.00 | 1.55 | 0.00 | 98 | 994.2 |
| 20260507074028 | 45 | 311 | 0.0 | 0.0 | 0.00 | 1.55 | 0.00 | 98 | 994.3 |
| 20260507073535 | 45 | 311 | 0.0 | 0.0 | 0.00 | 1.55 | 0.00 | 98 | 994.4 |
| 20260507073035 | 45 | 311 | 0.0 | 0.0 | 0.00 | 1.55 | 0.00 | 98 | 994.6 |
| 20260507072524 | 45 | 311 | 0.0 | 0.0 | 0.00 | 1.55 | 0.00 | 98 | 994.7 |
| 20260507072025 | 45 | 311 | 0.0 | 0.0 | 0.00 | 1.55 | 0.00 | 98 | 994.6 |
| 20260507071535 | 45 | 311 | 0.0 | 0.0 | 0.00 | 1.55 | 0.00 | 98 | 994.6 |
| 20260507071024 | 45 | 311 | 0.0 | 0.0 | 0.00 | 1.55 | 0.00 | 98 | 994.4 |
| 20260507070528 | 45 | 311 | 0.0 | 0.0 | 0.00 | 1.55 | 0.00 | 98 | 994.3 |
| 20260507070037 | 45 | 323 | 0.0 | 0.0 | 0.00 | 1.55 | 0.00 | 98 | 994.1 |
| 20260507065527 | 45 | 323 | 0.0 | 0.0 | 0.00 | 1.55 | 0.00 | 98 | 994.0 |
| 20260507065024 | 45 | 323 | 0.0 | 0.0 | 0.00 | 1.55 | 0.00 | 98 | 993.9 |
| 20260507064533 | 45 | 323 | 0.0 | 0.0 | 0.00 | 1.55 | 0.00 | 98 | 993.9 |
| 20260507064043 | 45 | 323 | 0.0 | 0.0 | 0.00 | 1.55 | 0.00 | 98 | 993.9 |
| 20260507063527 | 45 | 323 | 0.0 | 0.0 | 0.00 | 1.55 | 0.00 | 98 | 994.0 |
| 20260507063035 | 45 | 323 | 0.0 | 0.0 | 0.00 | 1.55 | 0.00 | 98 | 994.0 |
| 20260507062545 | 45 | 323 | 0.0 | 0.0 | 0.00 | 1.55 | 0.00 | 98 | 994.0 |
| 20260507062026 | 45 | 323 | 0.0 | 0.0 | 0.00 | 1.55 | 0.00 | 98 | 994.1 |
| 20260507061536 | 45 | 323 | 0.0 | 0.0 | 0.00 | 1.55 | 0.00 | 98 | 994.1 |
| 20260507061045 | 45 | 323 | 0.0 | 0.0 | 0.00 | 1.55 | 0.00 | 98 | 994.1 |
| 20260507060526 | 45 | 323 | 0.0 | 0.0 | 0.00 | 1.55 | 0.00 | 98 | 994.0 |
| 20260507060030 | 45 | 323 | 0.0 | 0.0 | 0.00 | 1.57 | 0.00 | 98 | 994.1 |
| 20260507055533 | 45 | 323 | 0.0 | 0.0 | 0.00 | 1.57 | 0.00 | 98 | 993.9 |
| 20260507055022 | 45 | 323 | 0.0 | 0.0 | 0.00 | 1.57 | 0.00 | 98 | 994.0 |
| 20260507054533 | 45 | 323 | 0.0 | 0.0 | 0.00 | 1.57 | 0.00 | 98 | 994.1 |
| 20260507054035 | 45 | 323 | 0.0 | 0.0 | 0.00 | 1.57 | 0.00 | 98 | 994.1 |
| 20260507053527 | 45 | 323 | 0.0 | 0.0 | 0.00 | 1.57 | 0.00 | 98 | 994.2 |
| 20260507053034 | 45 | 323 | 0.0 | 0.0 | 0.00 | 1.57 | 0.00 | 98 | 994.3 |
| 20260507052545 | 45 | 323 | 0.0 | 0.0 | 0.00 | 1.57 | 0.00 | 98 | 994.1 |
| 20260507052023 | 45 | 323 | 0.0 | 0.0 | 0.00 | 1.57 | 0.00 | 98 | 994.3 |
| 20260507051534 | 45 | 323 | 0.0 | 0.0 | 0.00 | 1.57 | 0.00 | 98 | 994.3 |
| 20260507051044 | 45 | 323 | 0.0 | 0.0 | 0.00 | 1.57 | 0.00 | 98 | 994.5 |
| 20260507050524 | 45 | 323 | 0.0 | 0.0 | 0.00 | 1.57 | 0.00 | 98 | 994.4 |
| 20260507050033 | 45 | 323 | 0.0 | 0.0 | 0.00 | 1.58 | 0.00 | 98 | 994.6 |
| 20260507045533 | 45 | 323 | 0.0 | 0.0 | 0.00 | 1.58 | 0.00 | 98 | 994.5 |
| 20260507045023 | 45 | 323 | 0.0 | 0.0 | 0.00 | 1.58 | 0.00 | 98 | 994.7 |
| 20260507044534 | 45 | 323 | 0.0 | 0.0 | 0.00 | 1.58 | 0.00 | 98 | 994.9 |
| 20260507044035 | 45 | 323 | 0.0 | 0.0 | 0.00 | 1.58 | 0.00 | 98 | 995.0 |
| 20260507043526 | 45 | 323 | 0.0 | 0.0 | 0.00 | 1.58 | 0.00 | 98 | 994.9 |
| 20260507043032 | 45 | 340 | 0.0 | 0.0 | 0.00 | 1.58 | 0.00 | 98 | 994.7 |
| 20260507042531 | 45 | 339 | 0.0 | 0.0 | 0.00 | 1.58 | 0.00 | 98 | 994.6 |
| 20260507042021 | 45 | 340 | 0.0 | 0.0 | 0.00 | 1.58 | 0.00 | 98 | 994.8 |
| 20260507041521 | 45 | 340 | 0.0 | 0.0 | 0.00 | 1.58 | 0.00 | 98 | 994.7 |
| 20260507041032 | 45 | 339 | 0.0 | 0.0 | 0.00 | 1.58 | 0.00 | 98 | 994.9 |
| 20260507040525 | 45 | 339 | 0.0 | 0.0 | 0.00 | 1.58 | 0.00 | 98 | 995.0 |
| 20260507040023 | 45 | 339 | 0.0 | 0.0 | 0.00 | 1.58 | 1.58 | 98 | 994.8 |
| 20260507035535 | 45 | 339 | 0.0 | 0.0 | 0.00 | 1.58 | 1.58 | 98 | 995.0 |
| 20260507035044 | 45 | 339 | 0.0 | 0.0 | 0.00 | 1.58 | 1.58 | 98 | 995.0 |
| 20260507034525 | 44 | 340 | 0.0 | 0.0 | 0.00 | 1.58 | 1.58 | 98 | 994.7 |
| 20260507034036 | 44 | 339 | 0.0 | 0.0 | 0.00 | 1.58 | 1.58 | 98 | 994.3 |
| 20260507033548 | 44 | 340 | 0.0 | 0.0 | 0.00 | 1.58 | 1.58 | 98 | 994.5 |
| 20260507033028 | 44 | 340 | 0.0 | 0.0 | 0.00 | 1.58 | 1.58 | 98 | 994.8 |
| 20260507032537 | 45 | 339 | 0.0 | 0.0 | 0.00 | 1.58 | 1.58 | 98 | 994.8 |
| 20260507032046 | 45 | 339 | 0.0 | 0.0 | 0.00 | 1.58 | 1.58 | 98 | 994.6 |
| 20260507031527 | 45 | 340 | 0.0 | 0.0 | 0.00 | 1.58 | 1.58 | 98 | 994.8 |
| 20260507031034 | 45 | 340 | 0.0 | 0.0 | 0.00 | 1.58 | 1.58 | 98 | 994.9 |
| 20260507030545 | 45 | 339 | 0.0 | 0.0 | 0.00 | 1.58 | 1.58 | 98 | 994.8 |
| 20260507030025 | 45 | 339 | 0.0 | 0.0 | 0.00 | 1.58 | 1.58 | 98 | 994.9 |
| 20260507025549 | 45 | 339 | 0.0 | 0.0 | 0.00 | 1.58 | 1.58 | 98 | 995.1 |
| 20260507025100 | 45 | 340 | 0.0 | 0.0 | 0.00 | 1.58 | 1.58 | 98 | 995.2 |
| 20260507024547 | 45 | 339 | 0.0 | 0.0 | 0.00 | 1.58 | 1.58 | 98 | 995.2 |
| 20260507024100 | 45 | 340 | 0.0 | 0.0 | 0.00 | 1.58 | 1.58 | 98 | 995.3 |
| 20260507023551 | 45 | 340 | 0.0 | 0.0 | 0.00 | 1.58 | 1.58 | 98 | 995.0 |
| 20260507023057 | 45 | 340 | 0.0 | 0.0 | 0.01 | 1.58 | 1.58 | 98 | 995.3 |
| 20260507022546 | 45 | 340 | 0.0 | 0.0 | 0.01 | 1.58 | 1.58 | 98 | 995.3 |